Location: CNYAC Observatory
(43.2150°N, 74.9500°W)
Time: 14:22:39
(UTC-04:00)

Meteor 1-22 Rocket - Pass Details

Date: 02 June 2018
Orbit: 787 x 941 km, 81.2° (Epoch: 21 June)

Event Time Altitude Azimuth Distance (km) Brightness Sun altitude
Rises 21:37:53 0° 356° (N) 3,306 8.1 -10.0°
Reaches altitude 10° 21:40:25 10° 3° (N) 2,363 7.2 -10.3°
Maximum altitude 21:45:26 42° 74° (ENE) 1,114 4.6 -11.0°
Enters shadow 21:49:25 15° 140° (SE) 1,993 5.5 -11.5°
